[[{"header":{"parameterUnit":"m.s-1","parameterCategory":1,"la1":30.2991,"la2":30.254,"lo1":-89.0895,"lo2":-89.0444,"dy":0.0017,"dx":0.0017,"nx":28,"ny":28,"refTime":"2025-12-27T03:00:00:Z","depth":0,"parameterNumber":2,"parameterNumberName":"U-component_of_WINDS"},"data":[0,0,0,0,0,0,0,0,0,0,0,0,0,0,0,0,0,0,0,0,0,0,0,0,0,0,0,0,0,0,0,0,0,0,0,0,0,0,0,0,0,0,0,0,0,0,0,0,0,0,0,0,0,0,0,0,0,0,0.0484,0.0484,0,0.0523,0.0523,0.0524,0.0547,0.0547,0.0547,0.0547,0.0587,0.0588,0.0589,0,0,0,0,0,0,0,0,0,0,0,0,0,0.0429,0.043,0.0484,0.0484,0.0485,0.0523,0.0523,0.0524,0.0547,0.0547,0.0547,0.0547,0.0587,0.0588,0.0589,0,0,0,0,0,0,0,0,0,0,0,0,0,0.0459,0.043,0.0484,0.0501,0.0503,0.0523,0.0523,0.0524,0.0547,0.0547,0.0547,0.0547,0.0587,0.0588,0.0589,0.0596,0,0,0.0594,0.0595,0,0,0,0,0,0,0,0,0.0457,0.0461,0.0498,0.05,0.0502,0.053,0.0519,0.0548,0.0547,0.053,0.0547,0.0547,0.0568,0.0571,0.0578,0.0597,0.0599,0.0594,0.0595,0.0596,0.0596,0,0,0,0,0,0,0,0.0455,0.0459,0.0499,0.0498,0.0501,0.0506,0.0511,0.0524,0.0548,0.0531,0.0533,0.0537,0.0569,0.0577,0.0579,0.06,0.0594,0.0595,0.0596,0.0597,0.0625,0.0625,0,0,0,0,0,0,0.045,0.0458,0.0498,0.0501,0.048,0.0507,0.0512,0.0521,0.0548,0.0552,0.0537,0.0538,0.0574,0.0577,0.0581,0.0589,0.0596,0.0597,0.0598,0.0625,0.0625,0.0625,0,0,0,0,0,0,0.0449,0.0454,0.0497,0.048,0.0485,0.0508,0.0518,0.0522,0.0529,0.0552,0.0556,0.0541,0.0574,0.0579,0.0591,0.0591,0.0598,0.0599,0.0625,0.0625,0.0625,0.0606,0,0,0,0,0,0,0.0448,0.0453,0.0456,0.0479,0.0486,0.0507,0.0518,0.0522,0.0531,0.0533,0.0556,0.056,0.0575,0.0589,0.0593,0.0593,0.06,0.0626,0.0625,0.0625,0.0607,0.0605,0.0604,0,0,0,0,0,0.0446,0.0449,0.0456,0.0461,0.049,0.0507,0.051,0.0527,0.0531,0.0534,0.0549,0.056,0.059,0.059,0.0595,0.0595,0.0626,0.0625,0.0625,0.0608,0.0606,0.0604,0,0,0,0,0,0,0.0426,0.0453,0.046,0.0472,0.0487,0.051,0.0514,0.0524,0.0538,0.054,0.0559,0.0564,0.0575,0.0587,0.0586,0.0602,0.0609,0.061,0.0594,0.0593,0.0591,0.0588,0.0601,0,0,0,0,0,0.0422,0.0434,0.0457,0.0465,0.0472,0.0492,0.05,0.0511,0.0527,0.0533,0.0549,0.0564,0.0577,0.0586,0.0599,0.0609,0.0614,0.0611,0.0609,0.0608,0.0608,0.0613,0.0612,0.0624,0.0624,0.0624,0,0,0.0416,0.0433,0.0439,0.0461,0.0474,0.0485,0.0497,0.0508,0.0516,0.0535,0.0548,0.056,0.0578,0.0589,0.0595,0.0599,0.0606,0.0608,0.0606,0.0608,0.0613,0.0612,0.0611,0.0624,0.0624,0.0624,0,0,0.0411,0.0424,0.0432,0.0444,0.0463,0.0476,0.0478,0.05,0.0509,0.0522,0.0536,0.0546,0.0568,0.058,0.0589,0.0587,0.0597,0.0591,0.0583,0.0588,0.0587,0.0586,0.0585,0.0584,0.0591,0.0591,0.0591,0,0.0401,0.0418,0.0435,0.0445,0.0454,0.0471,0.0479,0.049,0.0513,0.0518,0.0523,0.055,0.0564,0.0578,0.0577,0.0584,0.0586,0.0588,0.0586,0.0585,0.0585,0.0583,0.0583,0.059,0.059,0.059,0.059,0,0.0404,0.0416,0.042,0.044,0.045,0.0459,0.0477,0.0485,0.0495,0.0507,0.052,0.0537,0.0553,0.0558,0.0568,0.0572,0.0574,0.0582,0.0589,0.0582,0.0581,0.0581,0.0589,0.0589,0.0589,0.059,0,0,0.0388,0.0417,0.0418,0.0427,0.0449,0.0458,0.0467,0.0483,0.0489,0.0504,0.0512,0.053,0.0536,0.0547,0.0559,0.0563,0.0559,0.057,0.057,0.0567,0.0564,0.0558,0.0557,0.0566,0.0566,0.0566,0.0562,0,0.0385,0.0402,0.0418,0.043,0.044,0.0456,0.0464,0.0478,0.049,0.05,0.0513,0.0525,0.0533,0.0539,0.0544,0.0558,0.0559,0.0559,0.0573,0.0573,0.0568,0.0557,0.0551,0.0547,0.0562,0.0562,0.0562,0,0.0384,0.0397,0.041,0.043,0.0435,0.0442,0.0457,0.0467,0.0483,0.0491,0.0502,0.0514,0.0524,0.053,0.0545,0.0544,0.0551,0.0559,0.0559,0.0561,0.0567,0.0558,0.0546,0.0545,0.0562,0.0562,0.0562,0,0.037,0.0391,0.0402,0.0409,0.0432,0.0437,0.0447,0.0463,0.0471,0.0484,0.049,0.0504,0.0512,0.0523,0.0538,0.0541,0.055,0.0558,0.0557,0.0557,0.0558,0.0558,0.0547,0.0563,0.0563,0.0563,0.0563,0,0.0365,0.0372,0.0395,0.0402,0.041,0.0427,0.0435,0.0446,0.046,0.0468,0.0483,0.0491,0.0511,0.0521,0.0533,0.0542,0.0546,0.0552,0.0555,0.0551,0.055,0.0555,0.0556,0.0563,0.0563,0.0563,0.0563,0,0.0351,0.0367,0.0379,0.04,0.0405,0.041,0.0428,0.0435,0.0447,0.0457,0.0461,0.048,0.0492,0.0508,0.0526,0.0534,0.0542,0.0547,0.0536,0.0538,0.0536,0.0536,0.0528,0.0527,0.0544,0.0544,0.0543,0,0.0347,0.0353,0.0374,0.038,0.039,0.04,0.0409,0.0425,0.0433,0.0451,0.0455,0.0469,0.048,0.0499,0.0515,0.0528,0.0533,0.0529,0.0535,0.053,0.0532,0.0532,0.0532,0.0528,0.0528,0.0527,0.0527,0,0.0337,0.0345,0.0356,0.037,0.0379,0.0391,0.0403,0.0408,0.0427,0.0435,0.0448,0.0457,0.0474,0.0487,0.0502,0.0512,0.0523,0.0525,0.0526,0.0521,0.0514,0.0517,0.0532,0.0525,0.0525,0.0526,0.0526,0.0526,0.0328,0.0333,0.0349,0.0361,0.0372,0.0383,0.039,0.0402,0.0413,0.0428,0.0437,0.0449,0.0464,0.0486,0.0495,0.0504,0.0509,0.0509,0.051,0.0509,0.0507,0.0513,0.0507,0.0507,0.0508,0.0508,0.0508,0,0.0319,0.0329,0.034,0.0357,0.0366,0.0375,0.0388,0.0395,0.0406,0.0419,0.0429,0.0443,0.0456,0.0471,0.0485,0.0489,0.0494,0.0492,0.0492,0.0494,0.0503,0.0501,0.0488,0.0488,0.0488,0.0488,0.0488,0.0488,0.0315,0.0325,0.0334,0.0348,0.0359,0.0371,0.0378,0.0388,0.0398,0.0413,0.0423,0.0433,0.0447,0.0461,0.0472,0.0477,0.0481,0.0477,0.0483,0.0491,0.0493,0.0495,0.0493,0.0478,0.0478,0.0472,0.0472,0.0472]},{"header":{"parameterUnit":"m.s-1","parameterCategory":1,"la1":30.2991,"la2":30.254,"lo1":-89.0895,"lo2":-89.0444,"dy":0.0017,"dx":0.0017,"nx":28,"ny":28,"refTime":"2025-12-27T03:00:00:Z","depth":0,"parameterNumber":3,"parameterNumberName":"V-component_of_WINDS"},"data":[0,0,0,0,0,0,0,0,0,0,0,0,0,0,0,0,0,0,0,0,0,0,0,0,0,0,0,0,0,0,0,0,0,0,0,0,0,0,0,0,0,0,0,0,0,0,0,0,0,0,0,0,0,0,0,0,0,0,2.1426,2.1426,0,2.1395,2.1395,2.1395,2.1378,2.1378,2.1378,2.1378,2.1345,2.1344,2.1343,0,0,0,0,0,0,0,0,0,0,0,0,0,2.147,2.1469,2.1426,2.1426,2.1425,2.1396,2.1395,2.1395,2.1378,2.1378,2.1378,2.1378,2.1345,2.1344,2.1343,0,0,0,0,0,0,0,0,0,0,0,0,0,2.1446,2.1469,2.1426,2.1414,2.1412,2.1396,2.1395,2.1395,2.1378,2.1378,2.1378,2.1378,2.1346,2.1344,2.1343,2.1336,0,0,2.1339,2.1339,0,0,0,0,0,0,0,0,2.1447,2.1444,2.1416,2.1415,2.1413,2.1391,2.1398,2.1375,2.1378,2.1391,2.1378,2.1378,2.136,2.1358,2.1352,2.1334,2.1333,2.1339,2.1338,2.1338,2.1337,0,0,0,0,0,0,0,2.1449,2.1446,2.1414,2.1416,2.1414,2.1409,2.1406,2.1394,2.1376,2.139,2.1389,2.1386,2.1359,2.1353,2.1351,2.1332,2.1339,2.1338,2.1337,2.1337,2.1309,2.1309,0,0,0,0,0,0,2.1453,2.1447,2.1415,2.1413,2.1431,2.1409,2.1405,2.1398,2.1376,2.1373,2.1386,2.1385,2.1355,2.1352,2.135,2.1341,2.1338,2.1336,2.1336,2.1309,2.1309,2.1309,0,0,0,0,0,0,2.1454,2.145,2.1416,2.143,2.1425,2.1408,2.14,2.1397,2.1391,2.1373,2.137,2.1383,2.1355,2.1352,2.134,2.1339,2.1336,2.1335,2.1309,2.1309,2.1309,2.1322,0,0,0,0,0,0,2.1455,2.1451,2.1448,2.143,2.1424,2.1407,2.14,2.1397,2.1389,2.1388,2.1369,2.1366,2.1355,2.1342,2.1339,2.1338,2.1334,2.1309,2.1309,2.1309,2.1322,2.1323,2.1324,0,0,0,0,0,2.1457,2.1452,2.1448,2.1444,2.1421,2.1407,2.1404,2.1392,2.1389,2.1386,2.1375,2.1367,2.134,2.1341,2.1337,2.1336,2.1309,2.1309,2.1309,2.1321,2.1323,2.1324,0,0,0,0,0,0,2.1469,2.1449,2.1444,2.1434,2.1422,2.1404,2.14,2.1393,2.1382,2.1381,2.1366,2.1362,2.1352,2.1342,2.1343,2.1328,2.1323,2.1323,2.1335,2.1336,2.1337,2.1339,2.1333,0,0,0,0,0,2.1471,2.1462,2.1445,2.1437,2.1432,2.1417,2.1411,2.1403,2.139,2.1385,2.1372,2.136,2.1349,2.1342,2.133,2.1321,2.1317,2.1318,2.1319,2.132,2.1319,2.1315,2.1315,2.1309,2.1309,2.1309,0,0,2.1474,2.1462,2.1457,2.144,2.143,2.1421,2.1413,2.1403,2.1397,2.1383,2.1372,2.1362,2.1347,2.1337,2.1332,2.1329,2.132,2.132,2.1321,2.132,2.1315,2.1315,2.1316,2.1309,2.1309,2.1309,0,0,2.1475,2.1465,2.1458,2.1449,2.1435,2.1425,2.1424,2.1407,2.1401,2.1389,2.1379,2.1371,2.1351,2.1342,2.1334,2.1334,2.1326,2.133,2.1335,2.1331,2.1331,2.1332,2.1332,2.1333,2.133,2.133,2.133,0,2.148,2.1467,2.1455,2.1447,2.144,2.1428,2.1421,2.1412,2.1395,2.139,2.1388,2.1365,2.1354,2.1342,2.1342,2.1336,2.1334,2.1332,2.1332,2.1333,2.1333,2.1333,2.1333,2.1331,2.1331,2.1331,2.133,0,2.1475,2.1466,2.1462,2.1447,2.1439,2.1431,2.1418,2.1412,2.1405,2.1396,2.1385,2.1372,2.1358,2.1355,2.1347,2.1342,2.1341,2.1335,2.133,2.1334,2.1334,2.1334,2.1332,2.1331,2.1331,2.1331,0,0,2.1482,2.1461,2.146,2.1454,2.1438,2.1431,2.1423,2.1411,2.1406,2.1394,2.1388,2.1373,2.1369,2.136,2.1351,2.1348,2.1349,2.1343,2.1342,2.1345,2.1344,2.1348,2.1349,2.1344,2.1344,2.1344,2.1345,0,2.1481,2.1467,2.1457,2.1447,2.1439,2.1428,2.1422,2.1411,2.1403,2.1395,2.1385,2.1375,2.137,2.1365,2.1361,2.135,2.1349,2.135,2.1338,2.1338,2.1343,2.1349,2.1353,2.1354,2.1345,2.1345,2.1345,0,2.1478,2.1468,2.1458,2.1444,2.1441,2.1435,2.1424,2.1416,2.1404,2.1398,2.139,2.1382,2.1373,2.1369,2.1358,2.1359,2.1353,2.1348,2.1347,2.1346,2.1342,2.1348,2.1355,2.1355,2.1345,2.1345,2.1345,0,2.1485,2.1469,2.1461,2.1456,2.144,2.1436,2.1429,2.1418,2.1412,2.1402,2.1398,2.1387,2.138,2.1372,2.1361,2.1359,2.1351,2.1346,2.1346,2.1347,2.1345,2.1345,2.1351,2.1341,2.1341,2.1341,2.1341,0,2.1485,2.1479,2.1465,2.146,2.1453,2.1442,2.1436,2.1428,2.1418,2.1411,2.1401,2.1395,2.1381,2.1373,2.1364,2.1357,2.1354,2.1349,2.1347,2.135,2.1351,2.1347,2.1346,2.1341,2.1341,2.1341,2.1341,0,2.1492,2.1482,2.1473,2.1459,2.1455,2.1451,2.1439,2.1434,2.1426,2.1418,2.1415,2.1402,2.1393,2.1381,2.1367,2.1362,2.1355,2.1351,2.1359,2.1358,2.1359,2.136,2.1363,2.1363,2.1353,2.1353,2.1353,0,2.1493,2.1488,2.1474,2.147,2.1464,2.1456,2.145,2.1439,2.1434,2.1421,2.1418,2.1408,2.1399,2.1385,2.1374,2.1364,2.136,2.1362,2.1359,2.1363,2.1361,2.1362,2.1362,2.1363,2.1364,2.1364,2.1364,0,2.1496,2.1491,2.1484,2.1475,2.1468,2.146,2.1452,2.1449,2.1436,2.143,2.1421,2.1415,2.1402,2.1393,2.1382,2.1374,2.1367,2.1365,2.1365,2.1368,2.1373,2.1371,2.1362,2.1365,2.1365,2.1365,2.1365,2.1365,2.15,2.1496,2.1486,2.1478,2.1471,2.1464,2.1459,2.1451,2.1444,2.1433,2.1427,2.1418,2.1408,2.1393,2.1386,2.1379,2.1376,2.1375,2.1375,2.1375,2.1377,2.1375,2.1377,2.1377,2.1377,2.1377,2.1377,0,2.1503,2.1496,2.1489,2.1479,2.1473,2.1468,2.1459,2.1454,2.1447,2.1438,2.1431,2.1421,2.1413,2.1402,2.1392,2.1389,2.1386,2.1387,2.1387,2.1386,2.1379,2.1381,2.139,2.139,2.139,2.139,2.139,2.139,2.1504,2.1497,2.1492,2.1482,2.1476,2.1468,2.1464,2.1457,2.1451,2.1441,2.1434,2.1427,2.1418,2.1408,2.14,2.1397,2.1394,2.1397,2.1393,2.1387,2.1386,2.1385,2.1386,2.1396,2.1396,2.14,2.14,2.14]}]]